作者thnlkj0665 (灰色地帶)
看板Baseball
標題[分享] 今日 佐佐木朗希
時間Sat Mar 5 16:33:52 2022
IP H R ER BB SO HR ERA NP
佐佐木朗希 5.0 2 0 0 1 9 0 0.00 65
今天在福岡PayPay巨蛋先發面對地主軟銀隊
主投五局僅被擊出兩支短程一壘安打,飆出九次三振
而且只有出現一次保送
本場比賽最快球速達到個人最佳的163公里
整體均速則是維持在160.1公里
順便附上佐佐木在今天比賽的投球片段
https://www.youtube.com/watch?v=fUrII2YYl6Q
--
--
※ 發信站: 批踢踢實業坊(ptt.cc), 來自: 150.117.39.40 (臺灣)
※ 文章網址: https://webptt.com/m.aspx?n=bbs/Baseball/M.1646469234.A.930.html
1F:推 huangjyuan: 剛看完 真的強 03/05 16:35
2F:推 phil10048196: 長得有點像秋山翔吾 03/05 16:35
3F:推 poiu0987yaaa: 均速已經比大谷強了 03/05 16:36
4F:推 LukeSkywaker: 球快到帽子都戴不住了 03/05 16:37
5F:推 kenkenken31: 日本也有deGrom級的投手了嗎? 03/05 16:38
6F:推 qazthlin: 真 均速160 03/05 16:39
7F:推 ePaper: 帽子要換小一號的 03/05 16:39
8F:推 polanco: 現在去美國直接空降百大新秀第一名 03/05 16:40
9F:推 jeff95123: 均速100麥…. 03/05 16:40
10F:推 huangjyuan: 真的會空降第一名 03/05 16:41
11F:推 ricky158207: 不過對面的東濱也沒掉分 還是軟銀贏球 03/05 16:42
12F:推 poiu0987yaaa: 他的直球看起來跟利刀一樣 直接平射到捕手手套 03/05 16:43
13F:→ a2334436: 有一個漫畫走出來的 03/05 16:45
14F:推 ZachBritton: 熱身賽就這樣 例行賽不就170了 03/05 16:47
15F:推 glenliu: 下個修黑歐他你 03/05 16:47
16F:→ appshjkli: 百大第一?不可能 03/05 16:50
17F:推 bananacookie: 均速160也太鬼神 03/05 16:51
18F:→ appshjkli: 現在第一名的可是兩打Posey捏 03/05 16:51
19F:推 ZachBritton: 茂野吾郎膩帽子一直掉 03/05 16:52
20F:推 sixis: 撿帽子浪費太多體力 03/05 16:55
21F:推 sony1256: 好可怕 速球160 SFF149 這怎麼打 03/05 16:55
22F:推 lingling0000: 太強了吧...160+直球 145+指叉 控球也不錯 03/05 16:57
23F:推 cschuan: 掉帽子表示狀況好 03/05 16:59
24F:推 hsiehyu: 還好中日賽取消 03/05 17:03
25F:→ k33536: 頭髮太長太厚 帽子很難戴的緊 03/05 17:03
26F:推 l5i9hbba: 掉帽子 吾郎是你? 03/05 17:07
27F:推 minihyde: 18歲松川輕鬆接那犀利指叉也滿變態的 03/05 17:08
28F:推 xandertco: 手臂可以撐多久? 速度那麼快不久就要開TJ。 03/05 17:08
29F:推 tteeccddyy: 均速比大谷還快 03/05 17:10
30F:推 flykind: 有夠強 03/05 17:10
31F:推 s90523: 朗希說他自己今天狀況不好喔XD 03/05 17:12
32F:推 s5894143: 這樣身材就160了,還有可能更高級嗎? 03/05 17:19
33F:推 ttyl5566: 妖怪 03/05 17:20
34F:推 gn1698: 台日交流賽沒辦 讓佐佐木逃過一劫 03/05 17:22
35F:推 datader: 以超越DeGrom為目標吧! 03/05 17:24
36F:推 shadow6571: 帽子:欸這人是怎樣 03/05 17:26
37F:推 blackwoody: 好扯!真的電動 03/05 17:27
38F:推 Edison1174: 大谷去年均速95.6MPH=153.85 km/hr 03/05 17:27
39F:推 ccf0423: 先發5局還能均160,這應該日職史上單場均速最快的SP了吧XD 03/05 17:32
40F:→ teremy: 天花板真高 03/05 17:34
41F:推 osvaldo4040: 大谷在日本19歲-152.3、20歲152.4、21歲154.8、22歲 03/05 17:34
42F:推 LukeSkywaker: 大谷到MLB就沒什麼在催球速,一來大聯盟打者不怕, 03/05 17:34
43F:→ osvaldo4040: 155.5 03/05 17:34
44F:→ LukeSkywaker: 二來保存體力 03/05 17:34
45F:→ LukeSkywaker: 只有決勝球才會催一下 03/05 17:35
46F:→ james91718: 均速160太扯了 03/05 17:36
47F:推 hijodedios36: 先發均速160 這啥妖怪 03/05 17:36
48F:推 kasim65: 20歲 直球均速160 變化球均速14x 直上大聯盟也不奇怪 03/05 17:37
49F:推 jackwelch: 大谷之前在日本有一場直球均速159.71 03/05 17:39
50F:推 osvaldo4040: 大聯盟想要的還要慢慢等,羅德應該不可能一下子就放 03/05 17:40
51F:→ osvaldo4040: 人,尤其一進來就先徹底保護養成了一年左右才放出來 03/05 17:40
52F:→ osvaldo4040: 實戰XD 03/05 17:40
53F:推 teremy: 如果能像地瓜 100+連發也是非常難打 03/05 17:40
54F:→ jackwelch: 例行賽七局107球,5球163,31球破160 03/05 17:40
55F:→ Alvarez: 大谷均速159.7那場直球59顆 佐佐木今天36顆 一起比不公平 03/05 17:43
56F:推 ccf0423: 印象中那場是2016對阪神,第一次看到日職SP狂飆出這麼多顆 03/05 17:45
57F:→ ccf0423: 160XDD 03/05 17:45
58F:推 hsienlee: 均速160... 03/05 17:46
59F:推 a4268139: 感覺會比日職時期的達比修更強.. 03/05 17:47
60F:推 Giovinazzi99: 日本地瓜 希望別痛 03/05 17:48
61F:推 xman262: 野球魂覺醒直球170的男人 03/05 17:51
62F:推 stanley86300: 期待被大王教訓 03/05 17:55
63F:→ Alvarez: 田中將大就比日職的軟手油達強了 03/05 17:58
64F:推 Cliffx: 要上大聯盟了 03/05 18:00
65F:推 alex813: 省下撿帽子的體力,至少再多投一局 03/05 18:01
66F:→ Alvarez: 佐佐木身體太單薄沒在重訓 投球應該還有保留 看能不能練 03/05 18:01
67F:→ Alvarez: 和大谷一樣壯 或是他跟地瓜一樣難長肉? 這樣看了都怕怕的 03/05 18:01
68F:推 ases60909: 日本地瓜 03/05 18:04
69F:→ TBdrays: 羅德如果不能在他離開前拿一次冠軍真的要檢討 03/05 18:05
70F:推 zaibright: 真的猛 日本真的每個世代都有人才出來耶,而且一代 03/05 18:05
71F:→ zaibright: 比一代強 03/05 18:05
72F:→ Alvarez: 大谷在呸呸蛋最快也是163 呸呸蛋最快紀錄是Vieira的164 03/05 18:06
73F:推 ccf0423: 時代進步真可怕,以前平成怪物松坂單季均速約146,147左右 03/05 18:07
74F:→ ccf0423: 達比修最快均149,大谷155,這隻令和怪物說不定能比平成怪 03/05 18:08
75F:推 kausan: 感覺會很痛 03/05 18:08
76F:→ Alvarez: 不過Vieira當時投得像使盡吃奶的力一樣 03/05 18:08
77F:→ ccf0423: 物的單季均速多10公里Orz 03/05 18:08
78F:推 chargebro: 日本投手人才輩出 03/05 18:09
79F:→ strikeman: 大谷最快的球是在札幌蛋165 03/05 18:15
80F:推 kasim65: 天分吧 日本均速160的目前只有他吧 均速156以上也沒很多 03/05 18:15
81F:→ kasim65: 恐怖的是他還不高且身材單薄 就能投成這樣 然後體力問題? 03/05 18:16
82F:→ strikeman: 達爾還在大聯盟,比較年輕的田中就已經先回來了。 03/05 18:17
83F:→ strikeman: 所以按某A的理論就是大聯盟比較軟...XD 03/05 18:18
84F:推 ccf0423: 佐佐木還沒投完整季過,不好說單季均速能160或156以上 03/05 18:19
85F:推 littledos: 有影片嗎 03/05 18:20
86F:噓 s101881: 他怎麼可能沒在重訓,不要亂說 03/05 18:21
87F:→ strikeman: 不過今天看佐佐木投得還算輕鬆耶,真的怕.... 03/05 18:21
89F:推 JIYUI: 他是剛選進去身材單薄改造體態體能捏 不用太擔心吧 03/05 18:23
90F:→ Alvarez: 沒在重訓是有媒體報導啊 沒在跟的才別亂說 03/05 18:23
91F:→ strikeman: 媒體說的話可信度要打點折扣....這是常識吧... 03/05 18:25
92F:推 max0616: 均速160 誇張 03/05 18:25
93F:推 Cliffx: 帽子會掉反而代表他的狀態很好 03/05 18:28
94F:→ Alvarez: 球團人員說法比你瞎腦補好多了 不然佐佐木哪點像有大肌肌 03/05 18:28
95F:推 littledos: 指叉149 03/05 18:32
96F:推 Stras37: 1米9 你說不高? 03/05 18:32
97F:推 LukeSkywaker: 電視上看起來瘦瘦的,現場看起來都很壯,如果可以在 03/05 18:36
98F:→ LukeSkywaker: 電視上看起來壯的,現場真的跟肌肉棒子一樣了XD 03/05 18:36
99F:→ MikeChao: 他163丟得比大谷輕鬆 協調性更好.. 03/05 18:36
101F:推 gs8613789: 比打電動還扯 03/05 18:46
103F:推 scott0104: 真強 03/05 18:48
104F:推 bravery1117: 漫畫演的是真的... 03/05 18:49
105F:推 qoqo039: 好強 03/05 18:50
106F:推 hank25790803: 丟完掉帽子其實蠻帥的XD 03/05 18:50
107F:推 x284yk6cjo5: 可怕 03/05 18:52
108F:推 bnb89225: 茂野吾郎?一直掉帽子 03/05 19:01
109F:推 edhuang: 均速160... 03/05 19:07
110F:推 nastycurry: 好狠 03/05 19:10
111F:推 b99202071: 再來的課題就是健康投完整年 03/05 19:19
112F:推 ratom0315: 我敢說佐佐木進職棒一定有增重。電視上看起來瘦瘦的投 03/05 19:29
113F:→ ratom0315: 手,實際上看起來很大隻。就像deGrom在電視上看起來很 03/05 19:29
114F:→ ratom0315: 瘦,但其實很壯一樣。不過投球機制也會影響訓練的方向 03/05 19:29
115F:→ ratom0315: ,例如達比修就把下半身練得很壯,但deGrom則是相較比 03/05 19:29
116F:→ ratom0315: 較苗條,原因就是這兩位投手的投球機制不一樣。今年是 03/05 19:29
117F:→ ratom0315: 佐佐木首個完整賽季,等他投完整季再來評價他的表現吧 03/05 19:29
118F:→ ratom0315: 。 03/05 19:29
119F:推 megalodon35: 好猛喔 03/05 19:30
120F:推 a6444long: 狂 03/05 19:33
121F:推 HOLYXXXX: 鬼 03/05 19:37
122F:推 Yjizz: 期待感很夠 03/05 19:39
123F:推 marty7976: 快又準 怪物 03/05 19:39
124F:→ wryyyyyyyy: 怪物 03/05 19:44
125F:推 barton50195: 掉帽子代表狀況好 03/05 19:48
126F:→ SinShih: 朗希哥真正有夠強! 03/05 19:49
127F:推 XD051: 150公里的指叉球到底怎麼打 03/05 19:49
128F:推 Adam6613: 羅德佐藤健 03/05 19:50
129F:→ BaRanKa: 看好他發光 他不只快還準 03/05 19:53
130F:推 chris1102: 好鬼 03/05 19:54
131F:推 CHJ1412: 怪物 03/05 20:12
132F:推 beoneg: 指叉球149怎麼打… 03/05 20:14
133F:推 tws80531: 日本怎一直有怪物投手出現 03/05 20:15
134F:噓 s101881: 某a哪裡看的野雞媒體報導他沒重訓?我看羅德OB甚至他本人 03/05 20:30
135F:→ s101881: 採訪都說有在重訓,隨便拿幾篇自己去看吧 03/05 20:30
139F:噓 s101881: 早在2020年他就在重訓了,還買書來看,說他沒在重訓 XDD 03/05 20:34
140F:推 magicqw: 160速球 14x指叉 真的是怪物… 03/05 20:35
141F:→ hy654: 指叉球這麼快就算是MLB都打不太到阿 只能選掉或等失投 03/05 20:35
142F:→ s101881: 所以你的「球團人員說法」是…? 03/05 20:35
143F:推 kawhizaza: 柔軟度 感覺比大谷好很多... 03/05 20:40
144F:推 kawhizaza: 投球協調性 佐佐木>大谷>奧川 03/05 20:47
145F:推 rahim: 鄉民不是都說日本養成很廢? 03/05 20:49
146F:推 airkobe: 現代職業運動員最大挑戰我覺得是維持健康 03/05 20:49
147F:推 juicyfruit: 朗希希 03/05 20:50
148F:推 ramirez: 怪物 03/05 20:53
149F:推 Yanrei: 均速160…… 03/05 21:06
150F:推 s310213: 直球最慢157 03/05 21:06
151F:推 Destery: 有速球保護變化球,可以把打者吃的很死 03/05 21:06
152F:推 jise51103: 茂野吾郎是不是,一直給我掉帽子 03/05 21:11
153F:推 tsai18: 190以上還不高喔 03/05 21:15
154F:推 luckysmallsu: 超猛耶當年大樹在洋基均速140就能生存了 03/05 21:31
155F:推 pottr50911: 指差149怎麼打 跟鬼一樣 03/05 21:41
156F:推 wei409349: 帽子要掉幾次啊 03/05 21:42
157F:推 starcry: 王在洋基均速140? 03/05 21:46
158F:推 a213052002: 強!未來武士隊王牌 03/05 22:41
159F:推 cityhunter04: 變化球能到145~149!要怎麼打?? 03/05 22:43
160F:推 RandyOrlando: 棒球大聯盟又預言了一位XDD 03/05 22:43
161F:推 Arodz: 當然有重訓 都故意讓他在二軍養一年了 ... 03/05 22:49
162F:推 polanco: 均速140是連變化球都算進去嗎 03/05 23:08
163F:推 pikaholo33: 右投版茂野吾郎 03/05 23:14
164F:推 mightymouse: 速球均速160在MLB都極少見了 03/06 00:02
165F:推 Lovesandy8: 均速160?! 03/06 00:16
166F:→ dcdc: 但看轉播感覺球速沒有數字上那麼快啊! 03/06 00:30
167F:推 jimmy12282: 變化球跟別人直球一樣快 好扯 03/06 01:21
168F:→ wahaha888: 投變化球出手後,帽子好像比較容易掉? 03/06 02:05
169F:→ BigSnowgray: 什麼妖魔鬼怪! 03/06 07:42
170F:推 aqrt66558: 太離譜== 03/06 11:27
171F:推 jamesa12: 掉帽子這個我知道 03/06 13:28
172F:推 ghost069: 日本地瓜嗎 均速100麥 03/06 15:44
173F:推 sding: 可怖 03/08 12:04